Time,TemperatureF,DewpointF,PressureIn,WindDirection,WindDirectionDegrees,WindSpeedMPH,WindSpeedGustMPH,Humidity,HourlyPrecipIn,Conditions,Clouds,dailyrainin,SoftwareType,DateUTC
2013-01-27 00:02:00,10.8,9.0,30.43,ESE,118,0.0,-999.0,92,-99.99,,,0.02,weatherlink.com 1.10,2013-01-27 05:02:00,
2013-01-27 00:17:00,12.2,10.0,30.43,ESE,119,0.0,1.0,92,0.00,,,0.00,weatherlink.com 1.10,2013-01-27 05:17:00,
2013-01-27 00:32:00,13.0,11.0,30.43,SE,127,0.0,2.0,92,0.00,,,0.00,weatherlink.com 1.10,2013-01-27 05:32:00,
2013-01-27 00:47:00,12.7,11.0,30.43,ESE,122,0.0,2.0,91,0.00,,,0.00,weatherlink.com 1.10,2013-01-27 05:47:00,
2013-01-27 01:02:00,12.4,10.0,30.43,East,100,0.0,1.0,91,0.00,,,0.00,weatherlink.com 1.10,2013-01-27 06:02:00,
2013-01-27 01:17:00,12.2,10.0,30.43,ESE,110,0.0,1.0,91,0.00,,,0.00,weatherlink.com 1.10,2013-01-27 06:17:00,
2013-01-27 01:33:00,12.4,10.0,30.44,SE,135,0.0,1.0,91,0.00,,,0.00,weatherlink.com 1.10,2013-01-27 06:33:00,
2013-01-27 01:48:00,12.5,10.0,30.44,ESE,107,3.0,3.0,91,0.00,,,0.00,weatherlink.com 1.10,2013-01-27 06:48:00,
2013-01-27 02:03:00,12.7,10.0,30.44,East,94,0.0,4.0,90,0.00,,,0.00,weatherlink.com 1.10,2013-01-27 07:03:00,
2013-01-27 02:18:00,12.8,11.0,30.44,East,88,0.0,3.0,90,0.00,,,0.00,weatherlink.com 1.10,2013-01-27 07:18:00,
2013-01-27 02:33:00,12.8,11.0,30.44,ENE,75,0.0,1.0,91,0.00,,,0.00,weatherlink.com 1.10,2013-01-27 07:33:00,
2013-01-27 02:48:00,13.0,11.0,30.44,SE,125,1.0,1.0,90,0.00,,,0.00,weatherlink.com 1.10,2013-01-27 07:48:00,
2013-01-27 03:03:00,13.2,11.0,30.44,ENE,65,0.0,2.0,90,0.00,,,0.00,weatherlink.com 1.10,2013-01-27 08:03:00,
2013-01-27 03:18:00,13.2,11.0,30.43,East,91,3.0,4.0,90,0.00,,,0.00,weatherlink.com 1.10,2013-01-27 08:18:00,
2013-01-27 03:33:00,13.2,11.0,30.42,East,101,0.0,2.0,91,0.00,,,0.00,weatherlink.com 1.10,2013-01-27 08:33:00,
2013-01-27 03:48:00,13.4,11.0,30.43,ESE,102,0.0,2.0,91,0.00,,,0.00,weatherlink.com 1.10,2013-01-27 08:48:00,
2013-01-27 04:03:00,13.6,12.0,30.42,East,96,0.0,3.0,91,0.00,,,0.00,weatherlink.com 1.10,2013-01-27 09:03:00,
2013-01-27 04:18:00,13.9,12.0,30.42,ENE,73,0.0,2.0,91,0.00,,,0.00,weatherlink.com 1.10,2013-01-27 09:18:00,
2013-01-27 04:33:00,14.0,12.0,30.42,NNE,29,0.0,4.0,91,0.00,,,0.00,weatherlink.com 1.10,2013-01-27 09:33:00,
2013-01-27 04:48:00,14.4,12.0,30.42,SE,134,1.0,3.0,91,0.00,,,0.00,weatherlink.com 1.10,2013-01-27 09:48:00,
2013-01-27 05:03:00,14.5,12.0,30.41,ESE,120,0.0,1.0,91,0.00,,,0.00,weatherlink.com 1.10,2013-01-27 10:03:00,
2013-01-27 05:18:00,14.7,13.0,30.41,East,99,0.0,2.0,91,0.00,,,0.00,weatherlink.com 1.10,2013-01-27 10:18:00,
2013-01-27 05:33:00,14.8,13.0,30.40,ESE,108,1.0,1.0,91,0.00,,,0.00,weatherlink.com 1.10,2013-01-27 10:33:00,
2013-01-27 05:48:00,15.0,13.0,30.40,ENE,74,1.0,4.0,91,0.00,,,0.00,weatherlink.com 1.10,2013-01-27 10:48:00,
2013-01-27 06:03:00,15.3,13.0,30.40,East,89,2.0,3.0,91,0.00,,,0.00,weatherlink.com 1.10,2013-01-27 11:03:00,
2013-01-27 06:18:00,15.5,13.0,30.40,SE,141,1.0,2.0,91,0.00,,,0.00,weatherlink.com 1.10,2013-01-27 11:18:00,
2013-01-27 06:33:00,15.6,14.0,30.39,East,86,0.0,3.0,91,0.00,,,0.00,weatherlink.com 1.10,2013-01-27 11:33:00,
2013-01-27 06:48:00,15.9,14.0,30.39,ENE,61,0.0,1.0,91,0.00,,,0.00,weatherlink.com 1.10,2013-01-27 11:48:00,
2013-01-27 07:03:00,16.1,14.0,30.39,ENE,61,0.0,1.0,91,0.00,,,0.00,weatherlink.com 1.10,2013-01-27 12:03:00,
2013-01-27 07:18:00,16.2,14.0,30.39,ENE,63,0.0,2.0,91,0.00,,,0.00,weatherlink.com 1.10,2013-01-27 12:18:00,
2013-01-27 07:33:00,16.6,15.0,30.38,ENE,75,0.0,2.0,92,0.00,,,0.00,weatherlink.com 1.10,2013-01-27 12:33:00,
2013-01-27 07:48:00,17.2,15.0,30.37,ESE,119,2.0,2.0,92,0.00,,,0.00,weatherlink.com 1.10,2013-01-27 12:48:00,
2013-01-27 08:03:00,17.7,16.0,30.37,ENE,72,1.0,2.0,92,0.00,,,0.00,weatherlink.com 1.10,2013-01-27 13:03:00,
2013-01-27 08:18:00,22.9,21.0,30.37,South,191,1.0,7.0,92,0.00,,,0.00,weatherlink.com 1.10,2013-01-27 13:18:00,
2013-01-27 08:33:00,24.4,22.0,30.37,SE,128,3.0,9.0,90,0.00,,,0.00,weatherlink.com 1.10,2013-01-27 13:33:00,
2013-01-27 08:48:00,24.7,22.0,30.37,SSW,195,5.0,7.0,89,0.00,,,0.00,weatherlink.com 1.10,2013-01-27 13:48:00,
2013-01-27 09:03:00,25.0,23.0,30.37,SSW,202,3.0,8.0,90,0.00,,,0.00,weatherlink.com 1.10,2013-01-27 14:03:00,
2013-01-27 09:19:00,25.4,23.0,30.37,SSW,208,0.0,8.0,90,0.00,,,0.00,weatherlink.com 1.10,2013-01-27 14:19:00,
2013-01-27 09:34:00,25.8,23.0,30.36,SSE,158,4.0,9.0,89,0.00,,,0.00,weatherlink.com 1.10,2013-01-27 14:34:00,
2013-01-27 09:49:00,26.2,23.0,30.36,ESE,110,0.0,12.0,88,0.00,,,0.00,weatherlink.com 1.10,2013-01-27 14:49:00,
2013-01-27 10:04:00,26.3,23.0,30.36,WSW,246,2.0,9.0,87,0.00,,,0.00,weatherlink.com 1.10,2013-01-27 15:04:00,
2013-01-27 10:19:00,26.2,23.0,30.36,South,179,4.0,9.0,88,0.00,,,0.00,weatherlink.com 1.10,2013-01-27 15:19:00,
2013-01-27 10:34:00,26.3,23.0,30.36,SSE,167,2.0,10.0,88,0.00,,,0.00,weatherlink.com 1.10,2013-01-27 15:34:00,
2013-01-27 10:49:00,26.3,23.0,30.36,SSW,211,1.0,10.0,88,0.00,,,0.00,weatherlink.com 1.10,2013-01-27 15:49:00,
2013-01-27 11:04:00,26.2,23.0,30.36,WSW,248,4.0,9.0,89,0.00,,,0.00,weatherlink.com 1.10,2013-01-27 16:04:00,
2013-01-27 11:19:00,26.2,23.0,30.36,SSW,195,1.0,11.0,89,0.00,,,0.00,weatherlink.com 1.10,2013-01-27 16:19:00,
2013-01-27 11:34:00,26.3,23.0,30.36,SW,232,5.0,10.0,88,0.00,,,0.00,weatherlink.com 1.10,2013-01-27 16:34:00,
2013-01-27 11:49:00,26.4,23.0,30.35,SW,224,3.0,10.0,87,0.00,,,0.00,weatherlink.com 1.10,2013-01-27 16:49:00,
2013-01-27 12:04:00,26.7,23.0,30.35,West,261,2.0,7.0,86,0.00,,,0.00,weatherlink.com 1.10,2013-01-27 17:04:00,
2013-01-27 12:19:00,26.7,23.0,30.34,SSW,200,3.0,10.0,86,0.00,,,0.00,weatherlink.com 1.10,2013-01-27 17:19:00,
2013-01-27 12:34:00,26.9,24.0,30.33,West,264,2.0,10.0,88,0.00,,,0.00,weatherlink.com 1.10,2013-01-27 17:34:00,
2013-01-27 12:49:00,27.0,24.0,30.32,SE,146,1.0,10.0,89,0.00,,,0.00,weatherlink.com 1.10,2013-01-27 17:49:00,
2013-01-27 13:04:00,27.5,25.0,30.32,SW,232,12.0,12.0,89,0.00,,,0.00,weatherlink.com 1.10,2013-01-27 18:04:00,
2013-01-27 13:19:00,27.8,25.0,30.31,SSW,197,5.0,10.0,88,0.00,,,0.00,weatherlink.com 1.10,2013-01-27 18:19:00,
2013-01-27 13:34:00,28.1,25.0,30.31,West,276,6.0,10.0,87,0.00,,,0.00,weatherlink.com 1.10,2013-01-27 18:34:00,
2013-01-27 13:49:00,28.1,25.0,30.30,SW,224,2.0,12.0,87,0.00,,,0.00,weatherlink.com 1.10,2013-01-27 18:49:00,
2013-01-27 14:04:00,28.5,25.0,30.30,WSW,248,1.0,11.0,86,0.00,,,0.00,weatherlink.com 1.10,2013-01-27 19:04:00,
2013-01-27 14:19:00,28.4,25.0,30.29,SW,219,10.0,12.0,86,0.00,,,0.00,weatherlink.com 1.10,2013-01-27 19:19:00,
2013-01-27 14:34:00,28.3,25.0,30.28,SSW,195,3.0,13.0,86,0.00,,,0.00,weatherlink.com 1.10,2013-01-27 19:34:00,
2013-01-27 14:49:00,28.8,25.0,30.27,South,183,3.0,10.0,85,0.00,,,0.00,weatherlink.com 1.10,2013-01-27 19:49:00,
2013-01-27 15:04:00,29.4,25.0,30.26,SW,228,1.0,12.0,84,0.00,,,0.00,weatherlink.com 1.10,2013-01-27 20:04:00,
2013-01-27 15:19:00,29.6,24.0,30.26,SE,129,2.0,11.0,81,0.00,,,0.00,weatherlink.com 1.10,2013-01-27 20:19:00,
2013-01-27 15:34:00,29.4,24.0,30.25,SSE,158,4.0,13.0,80,0.00,,,0.00,weatherlink.com 1.10,2013-01-27 20:34:00,
2013-01-27 15:49:00,29.1,24.0,30.25,SW,218,4.0,11.0,80,0.00,,,0.00,weatherlink.com 1.10,2013-01-27 20:49:00,
2013-01-27 16:04:00,28.8,24.0,30.25,SE,131,6.0,12.0,82,0.00,,,0.00,weatherlink.com 1.10,2013-01-27 21:04:00,
2013-01-27 16:19:00,28.5,24.0,30.26,SSW,201,7.0,14.0,83,0.00,,,0.00,weatherlink.com 1.10,2013-01-27 21:19:00,
2013-01-27 16:34:00,28.3,24.0,30.25,SE,131,5.0,10.0,84,0.00,,,0.00,weatherlink.com 1.10,2013-01-27 21:34:00,
2013-01-27 16:49:00,28.1,24.0,30.25,SE,135,3.0,10.0,85,0.00,,,0.00,weatherlink.com 1.10,2013-01-27 21:49:00,
2013-01-27 17:04:00,27.9,24.0,30.25,SE,128,5.0,11.0,86,0.00,,,0.00,weatherlink.com 1.10,2013-01-27 22:04:00,
2013-01-27 17:19:00,27.9,24.0,30.25,SE,143,3.0,8.0,86,0.00,,,0.00,weatherlink.com 1.10,2013-01-27 22:19:00,
2013-01-27 17:34:00,27.9,24.0,30.25,ESE,123,1.0,6.0,86,0.00,,,0.00,weatherlink.com 1.10,2013-01-27 22:34:00,
2013-01-27 17:49:00,28.0,24.0,30.25,ESE,113,7.0,7.0,84,0.00,,,0.00,weatherlink.com 1.10,2013-01-27 22:49:00,
2013-01-27 18:04:00,28.0,24.0,30.25,SE,146,3.0,8.0,83,0.00,,,0.00,weatherlink.com 1.10,2013-01-27 23:04:00,
2013-01-27 18:19:00,28.0,23.0,30.25,SSE,150,3.0,7.0,82,0.00,,,0.00,weatherlink.com 1.10,2013-01-27 23:19:00,
2013-01-27 18:34:00,28.0,23.0,30.25,SE,144,3.0,6.0,82,0.00,,,0.00,weatherlink.com 1.10,2013-01-27 23:34:00,
2013-01-27 18:49:00,27.9,23.0,30.24,SE,142,3.0,5.0,82,0.00,,,0.00,weatherlink.com 1.10,2013-01-27 23:49:00,
2013-01-27 19:05:00,27.7,23.0,30.24,SE,129,3.0,4.0,83,0.00,,,0.00,weatherlink.com 1.10,2013-01-28 00:05:00,
2013-01-27 19:20:00,27.5,23.0,30.24,ESE,116,1.0,3.0,82,0.00,,,0.00,weatherlink.com 1.10,2013-01-28 00:20:00,
2013-01-27 19:35:00,27.1,23.0,30.23,SE,134,0.0,2.0,84,0.00,,,0.00,weatherlink.com 1.10,2013-01-28 00:35:00,
2013-01-27 19:50:00,27.4,23.0,30.24,SE,143,0.0,2.0,84,0.00,,,0.00,weatherlink.com 1.10,2013-01-28 00:50:00,
2013-01-27 20:05:00,27.7,24.0,30.23,ESE,113,1.0,3.0,84,0.00,,,0.00,weatherlink.com 1.10,2013-01-28 01:05:00,
2013-01-27 20:20:00,28.0,24.0,30.22,SE,136,2.0,4.0,83,0.00,,,0.00,weatherlink.com 1.10,2013-01-28 01:20:00,
2013-01-27 20:35:00,28.4,24.0,30.22,SE,131,0.0,4.0,83,0.00,,,0.00,weatherlink.com 1.10,2013-01-28 01:35:00,
2013-01-27 20:50:00,28.6,24.0,30.22,SE,135,2.0,5.0,82,0.00,,,0.00,weatherlink.com 1.10,2013-01-28 01:50:00,
2013-01-27 21:05:00,28.9,24.0,30.21,South,191,1.0,6.0,81,0.00,,,0.00,weatherlink.com 1.10,2013-01-28 02:05:00,
2013-01-27 21:20:00,29.1,24.0,30.20,SE,140,4.0,6.0,80,0.00,,,0.00,weatherlink.com 1.10,2013-01-28 02:20:00,
2013-01-27 21:35:00,29.2,24.0,30.20,ESE,116,5.0,8.0,81,0.00,,,0.00,weatherlink.com 1.10,2013-01-28 02:35:00,
2013-01-27 21:50:00,29.2,24.0,30.20,SSE,152,3.0,8.0,82,0.00,,,0.00,weatherlink.com 1.10,2013-01-28 02:50:00,
2013-01-27 22:06:00,28.4,25.0,30.19,SE,139,6.0,11.0,88,0.00,,,0.00,weatherlink.com 1.10,2013-01-28 03:06:00,
2013-01-27 22:20:00,28.0,26.0,30.18,SE,131,10.0,10.0,91,0.00,,,0.00,weatherlink.com 1.10,2013-01-28 03:20:00,
2013-01-27 22:35:00,27.8,26.0,30.17,SE,134,4.0,8.0,92,0.00,,,0.00,weatherlink.com 1.10,2013-01-28 03:35:00,
2013-01-27 22:50:00,27.7,26.0,30.16,ESE,123,3.0,9.0,93,0.00,,,0.00,weatherlink.com 1.10,2013-01-28 03:50:00,
2013-01-27 23:05:00,27.8,26.0,30.15,ESE,123,4.0,9.0,93,0.00,,,0.00,weatherlink.com 1.10,2013-01-28 04:05:00,
2013-01-27 23:20:00,27.8,26.0,30.14,SE,131,7.0,10.0,93,0.00,,,0.00,weatherlink.com 1.10,2013-01-28 04:20:00,
2013-01-27 23:41:00,27.8,26.0,30.14,SSE,149,5.0,8.0,93,0.00,,,0.00,weatherlink.com 1.10,2013-01-28 04:41:00,
2013-01-27 23:50:00,27.9,26.0,30.14,SE,145,8.0,11.0,93,0.00,,,0.00,weatherlink.com 1.10,2013-01-28 04:50:00,